Location: Madaval?rg?dem
(16.6092°N, 80.7257°E)
Time: 12:24:17
(UTC+00:00)

Envisat - Visible Passes

Search period start: 12 August 2022 00:00
Search period end: 22 August 2022 00:00
Orbit: 763 x 765 km, 98.2° (Epoch: 11 August)

Date Brightness Start Highest point End Pass type
(mag) Time Alt. Az. Time Alt. Az. Time Alt. Az.
12 Aug 3.2 23:10:19 10° N 23:15:13 51° WNW 23:19:18 15° SSW visible
13 Aug 3.5 22:33:24 10° NNE 22:38:22 57° E 22:41:53 19° S visible
14 Aug 5.2 21:57:42 10° NE 22:01:25 21° E 22:04:29 12° SE visible
14 Aug 4.0 23:36:05 10° NNW 23:40:13 26° WNW 23:44:22 10° SW visible
15 Aug 2.9 22:58:25 10° N 23:03:27 71° WNW 23:07:16 18° SSW visible
16 Aug 4.1 22:21:48 10° NNE 22:26:33 41° E 22:29:52 18° SSE visible
17 Aug 5.6 21:46:46 10° ENE 21:49:35 15° E 21:52:24 10° SE visible
17 Aug 3.6 23:23:54 10° N 23:28:29 35° WNW 23:32:39 12° SW visible
18 Aug 3.0 22:46:35 10° NNE 22:51:40 84° ESE 22:55:14 20° S visible
19 Aug 4.6 22:10:20 10° NE 22:14:45 30° E 22:17:50 17° SSE visible
19 Aug 4.5 23:50:06 10° NNW 23:53:26 18° WNW 23:56:47 10° WSW visible
20 Aug 5.9 21:36:54 10° E 21:37:44 10° E 21:38:35 10° ESE visible
20 Aug 3.2 23:11:51 10° N 23:16:43 48° WNW 23:20:37 15° SW visible
21 Aug 3.4 22:34:52 10° NNE 22:39:52 61° ESE 22:43:13 21° S visible
